| time (UTC) | temp F | wind direction | speed knots | gust knots | rain 1hr in | rain 24hr in | rain mn in | humidity % | barometer mb |
| 20260902233927 | 90 | 207 | 0.0 | 0.9 | 0.00 | 0.00 | 0.00 | 60 | 1015.2 |
| 20260902232921 | 91 | 207 | 0.0 | 0.0 | 0.00 | 0.00 | 0.00 | 60 | 1015.2 |
| 20260902232455 | 91 | 207 | 0.0 | 1.7 | 0.00 | 0.00 | 0.00 | 59 | 1015.1 |
| 20260902231928 | 91 | 207 | 0.9 | 3.5 | 0.00 | 0.00 | 0.00 | 59 | 1015.2 |
| 20260902231502 | 91 | 198 | 1.7 | 3.5 | 0.00 | 0.00 | 0.00 | 58 | 1015.4 |
| 20260902230934 | 91 | 239 | 0.9 | 3.5 | 0.00 | 0.00 | 0.00 | 57 | 1015.3 |
| 20260902230000 | 92 | 247 | 1.7 | 3.5 | 0.00 | 0.00 | 0.00 | 56 | 1015.4 |
| 20260902225433 | 92 | 212 | 1.7 | 3.5 | 0.00 | 0.00 | 0.00 | 56 | 1015.4 |
| 20260902223945 | 93 | 231 | 1.7 | 4.3 | 0.00 | 0.00 | 0.00 | 54 | 1015.3 |
| 20260902223418 | 93 | 231 | 2.6 | 7.0 | 0.00 | 0.00 | 0.00 | 54 | 1015.3 |
| 20260902222952 | 93 | 243 | 1.7 | 7.0 | 0.00 | 0.00 | 0.00 | 53 | 1015.5 |
| 20260902222424 | 93 | 217 | 2.6 | 5.2 | 0.00 | 0.00 | 0.00 | 52 | 1015.4 |
| 20260902215958 | 94 | 219 | 4.3 | 6.1 | 0.00 | 0.00 | 0.00 | 51 | 1015.5 |
| 20260902215414 | 94 | 227 | 1.7 | 6.1 | 0.00 | 0.00 | 0.00 | 51 | 1015.5 |
| 20260902214504 | 95 | 220 | 2.6 | 3.5 | 0.00 | 0.00 | 0.00 | 50 | 1015.5 |
| 20260902212928 | 94 | 202 | 4.3 | 6.1 | 0.00 | 0.00 | 0.00 | 51 | 1015.5 |
| 20260902212502 | 95 | 228 | 4.3 | 6.1 | 0.00 | 0.00 | 0.00 | 50 | 1015.7 |
| 20260902211935 | 95 | 253 | 0.9 | 7.8 | 0.00 | 0.00 | 0.00 | 51 | 1015.6 |
| 20260902210931 | 95 | 260 | 2.6 | 7.8 | 0.00 | 0.00 | 0.00 | 52 | 1015.5 |
| 20260902210505 | 95 | 257 | 2.6 | 7.8 | 0.00 | 0.00 | 0.00 | 49 | 1015.7 |
| 20260902205935 | 95 | 234 | 5.2 | 6.1 | 0.00 | 0.00 | 0.00 | 49 | 1015.7 |
| 20260902205408 | 95 | 270 | 3.5 | 6.1 | 0.00 | 0.00 | 0.00 | 50 | 1015.7 |
| 20260902204941 | 94 | 239 | 2.6 | 6.1 | 0.00 | 0.00 | 0.00 | 51 | 1015.9 |
| 20260902204413 | 94 | 243 | 3.5 | 6.1 | 0.00 | 0.00 | 0.00 | 49 | 1015.9 |
| 20260902203947 | 95 | 185 | 4.3 | 7.0 | 0.00 | 0.00 | 0.00 | 51 | 1015.9 |
| 20260902201911 | 95 | 224 | 2.6 | 8.7 | 0.00 | 0.00 | 0.00 | 49 | 1015.9 |
| 20260902201445 | 95 | 239 | 5.2 | 8.7 | 0.00 | 0.00 | 0.00 | 50 | 1015.9 |
| 20260902200918 | 94 | 226 | 2.6 | 5.2 | 0.00 | 0.00 | 0.00 | 51 | 1015.9 |
| 20260902200452 | 95 | 227 | 2.6 | 7.0 | 0.00 | 0.00 | 0.00 | 49 | 1015.9 |
| 20260902195002 | 96 | 226 | 5.2 | 7.8 | 0.00 | 0.00 | 0.00 | 48 | 1016.2 |
| 20260902193951 | 95 | 243 | 2.6 | 7.0 | 0.00 | 0.00 | 0.00 | 49 | 1016.3 |
| 20260902193423 | 96 | 203 | 3.5 | 6.1 | 0.00 | 0.00 | 0.00 | 49 | 1016.4 |
| 20260902192957 | 96 | 196 | 4.3 | 6.1 | 0.00 | 0.00 | 0.00 | 47 | 1016.4 |
| 20260902191429 | 95 | 210 | 3.5 | 7.8 | 0.00 | 0.00 | 0.00 | 51 | 1016.5 |
| 20260902191003 | 95 | 235 | 1.7 | 5.2 | 0.00 | 0.00 | 0.00 | 50 | 1016.6 |
| 20260902190436 | 95 | 215 | 3.5 | 5.2 | 0.00 | 0.00 | 0.00 | 48 | 1016.7 |
| 20260902184957 | 95 | 210 | 4.3 | 7.0 | 0.00 | 0.00 | 0.00 | 50 | 1016.8 |
| 20260902184429 | 95 | 257 | 3.5 | 5.2 | 0.00 | 0.00 | 0.00 | 51 | 1016.9 |
| 20260902182942 | 94 | 241 | 3.5 | 6.1 | 0.00 | 0.00 | 0.00 | 52 | 1016.9 |
| 20260902182415 | 94 | 235 | 1.7 | 3.5 | 0.00 | 0.00 | 0.00 | 55 | 1017.0 |
| 20260902181948 | 93 | 270 | 2.6 | 6.1 | 0.00 | 0.00 | 0.00 | 55 | 1016.9 |
| 20260902181421 | 92 | 228 | 2.6 | 6.1 | 0.00 | 0.00 | 0.00 | 56 | 1016.9 |
| 20260902180954 | 92 | 241 | 4.3 | 6.1 | 0.00 | 0.00 | 0.00 | 57 | 1016.9 |
| 20260902180426 | 92 | 251 | 1.7 | 7.0 | 0.00 | 0.00 | 0.00 | 56 | 1017.0 |
| 20260902175938 | 92 | 241 | 4.3 | 7.0 | 0.00 | 0.00 | 0.00 | 55 | 1017.1 |
| 20260902174934 | 93 | 256 | 5.2 | 7.0 | 0.00 | 0.00 | 0.00 | 55 | 1017.0 |
| 20260902174407 | 93 | 239 | 7.0 | 7.0 | 0.00 | 0.00 | 0.00 | 55 | 1017.1 |
| 20260902173940 | 93 | 246 | 3.5 | 7.8 | 0.00 | 0.00 | 0.00 | 56 | 1017.2 |
| 20260902173412 | 93 | 232 | 5.2 | 7.8 | 0.00 | 0.00 | 0.00 | 55 | 1017.3 |
| 20260902171456 | 93 | 218 | 1.7 | 6.1 | 0.00 | 0.00 | 0.00 | 59 | 1017.4 |
| 20260902170913 | 92 | 218 | 2.6 | 5.2 | 0.00 | 0.00 | 0.00 | 59 | 1017.4 |
| 20260902165416 | 92 | 239 | 3.5 | 8.7 | 0.00 | 0.00 | 0.00 | 61 | 1017.5 |
| 20260902164949 | 92 | 205 | 1.7 | 8.7 | 0.00 | 0.00 | 0.00 | 62 | 1017.5 |
| 20260902164422 | 92 | 235 | 2.6 | 5.2 | 0.00 | 0.00 | 0.00 | 61 | 1017.6 |
| 20260902163432 | 91 | 212 | 4.3 | 5.2 | 0.00 | 0.00 | 0.00 | 62 | 1017.9 |
| 20260902163006 | 91 | 299 | 3.5 | 6.1 | 0.00 | 0.00 | 0.00 | 59 | 1017.9 |
| 20260902162422 | 91 | 184 | 5.2 | 6.1 | 0.00 | 0.00 | 0.00 | 62 | 1017.8 |
| 20260902161956 | 90 | 266 | 1.7 | 6.1 | 0.00 | 0.00 | 0.00 | 62 | 1017.9 |
| 20260902161429 | 90 | 229 | 3.5 | 5.2 | 0.00 | 0.00 | 0.00 | 62 | 1018.0 |
| 20260902161003 | 90 | 262 | 2.6 | 6.1 | 0.00 | 0.00 | 0.00 | 63 | 1018.0 |
| 20260902155929 | 90 | 200 | 2.6 | 5.2 | 0.00 | 0.00 | 0.00 | 64 | 1018.2 |
| 20260902154926 | 89 | 259 | 2.6 | 5.2 | 0.00 | 0.00 | 0.00 | 64 | 1018.2 |
| 20260902154500 | 89 | 200 | 3.5 | 5.2 | 0.00 | 0.00 | 0.00 | 66 | 1018.2 |
| 20260902153933 | 88 | 220 | 3.5 | 5.2 | 0.00 | 0.00 | 0.00 | 67 | 1018.2 |
| 20260902152921 | 88 | 193 | 0.9 | 5.2 | 0.00 | 0.00 | 0.00 | 68 | 1018.2 |
| 20260902152454 | 88 | 241 | 2.6 | 5.2 | 0.00 | 0.00 | 0.00 | 68 | 1018.2 |
| 20260902151927 | 88 | 280 | 1.7 | 4.3 | 0.00 | 0.00 | 0.00 | 69 | 1018.2 |
| 20260902150439 | 87 | 230 | 1.7 | 4.3 | 0.00 | 0.00 | 0.00 | 69 | 1018.3 |
| 20260902145909 | 86 | 221 | 3.5 | 4.3 | 0.00 | 0.00 | 0.00 | 72 | 1018.2 |
| 20260902145443 | 86 | 228 | 0.9 | 2.6 | 0.00 | 0.00 | 0.00 | 71 | 1018.2 |
| 20260902144431 | 85 | 220 | 0.9 | 2.6 | 0.00 | 0.00 | 0.00 | 73 | 1018.2 |
| 20260902143441 | 83 | 260 | 3.5 | 7.0 | 0.00 | 0.00 | 0.00 | 75 | 1018.2 |
| 20260902142438 | 83 | 201 | 2.6 | 4.3 | 0.00 | 0.00 | 0.00 | 77 | 1018.2 |
| 20260902141911 | 82 | 225 | 2.6 | 6.1 | 0.00 | 0.00 | 0.00 | 77 | 1018.2 |
| 20260902141445 | 82 | 253 | 0.9 | 6.1 | 0.00 | 0.00 | 0.00 | 78 | 1018.3 |
| 20260902140435 | 81 | 253 | 0.9 | 2.6 | 0.00 | 0.00 | 0.00 | 80 | 1018.2 |
| 20260902135945 | 81 | 182 | 2.6 | 4.3 | 0.00 | 0.00 | 0.00 | 80 | 1018.2 |
| 20260902135418 | 80 | 247 | 2.6 | 4.3 | 0.00 | 0.00 | 0.00 | 82 | 1018.2 |
| 20260902134952 | 79 | 257 | 1.7 | 3.5 | 0.00 | 0.00 | 0.00 | 82 | 1018.2 |
| 20260902133420 | 78 | 206 | 0.9 | 3.5 | 0.00 | 0.00 | 0.00 | 85 | 1018.2 |
| 20260902130940 | 77 | 217 | 2.6 | 3.5 | 0.00 | 0.00 | 0.00 | 87 | 1018.3 |
| 20260902124920 | 76 | 215 | 2.6 | 2.6 | 0.00 | 0.00 | 0.00 | 89 | 1018.2 |
| 20260902124454 | 75 | 214 | 1.7 | 2.6 | 0.00 | 0.00 | 0.00 | 90 | 1018.3 |
| 20260902123926 | 75 | 204 | 0.9 | 1.7 | 0.00 | 0.00 | 0.00 | 91 | 1018.2 |
| 20260902121910 | 73 | 204 | 0.0 | 0.0 | 0.00 | 0.00 | 0.00 | 91 | 1017.9 |
| 20260902121444 | 73 | 204 | 0.0 | 0.0 | 0.00 | 0.00 | 0.00 | 91 | 1017.8 |
| 20260902120917 | 73 | 204 | 0.0 | 0.0 | 0.00 | 0.00 | 0.00 | 91 | 1017.8 |
| 20260902120450 | 73 | 204 | 0.0 | 0.0 | 0.00 | 0.00 | 0.00 | 91 | 1017.8 |
| 20260902115920 | 73 | 204 | 0.0 | 0.0 | 0.00 | 0.00 | 0.00 | 91 | 1017.6 |
| 20260902115454 | 73 | 204 | 0.0 | 0.0 | 0.00 | 0.00 | 0.00 | 91 | 1017.6 |
| 20260902114927 | 73 | 204 | 0.0 | 0.0 | 0.00 | 0.00 | 0.00 | 91 | 1017.5 |
| 20260902113924 | 72 | 204 | 0.0 | 0.0 | 0.00 | 0.00 | 0.00 | 91 | 1017.5 |
| 20260902113458 | 72 | 204 | 0.0 | 0.0 | 0.00 | 0.00 | 0.00 | 91 | 1017.5 |
| 20260902112931 | 72 | 204 | 0.0 | 0.0 | 0.00 | 0.00 | 0.00 | 91 | 1017.4 |
| 20260902112504 | 72 | 204 | 0.0 | 0.0 | 0.00 | 0.00 | 0.00 | 91 | 1017.4 |
| 20260902111454 | 72 | 204 | 0.0 | 0.0 | 0.00 | 0.00 | 0.00 | 91 | 1017.3 |
| 20260902110927 | 72 | 204 | 0.0 | 0.0 | 0.00 | 0.00 | 0.00 | 91 | 1017.3 |
| 20260902110500 | 72 | 204 | 0.0 | 0.0 | 0.00 | 0.00 | 0.00 | 91 | 1017.2 |
| 20260902104505 | 72 | 204 | 0.0 | 0.0 | 0.00 | 0.00 | 0.00 | 91 | 1017.2 |
| 20260902103454 | 73 | 204 | 0.0 | 0.0 | 0.00 | 0.00 | 0.00 | 91 | 1017.2 |
| 20260902102927 | 73 | 204 | 0.0 | 0.0 | 0.00 | 0.00 | 0.00 | 91 | 1017.1 |
| 20260902102501 | 73 | 204 | 0.0 | 0.0 | 0.00 | 0.00 | 0.00 | 91 | 1017.1 |
| 20260902101934 | 73 | 204 | 0.0 | 0.0 | 0.00 | 0.00 | 0.00 | 91 | 1017.2 |
| 20260902100930 | 73 | 204 | 0.0 | 0.0 | 0.00 | 0.00 | 0.00 | 91 | 1017.1 |
| 20260902100503 | 73 | 204 | 0.0 | 0.0 | 0.00 | 0.00 | 0.00 | 91 | 1017.1 |
| 20260902095932 | 73 | 204 | 0.0 | 0.0 | 0.00 | 0.00 | 0.00 | 91 | 1017.2 |
| 20260902094921 | 73 | 204 | 0.0 | 0.0 | 0.00 | 0.00 | 0.00 | 90 | 1017.2 |
| 20260902094455 | 73 | 204 | 0.0 | 0.0 | 0.00 | 0.00 | 0.00 | 90 | 1017.1 |
| 20260902093928 | 73 | 204 | 0.0 | 0.0 | 0.00 | 0.00 | 0.00 | 90 | 1017.0 |
| 20260902093502 | 73 | 204 | 0.0 | 0.0 | 0.00 | 0.00 | 0.00 | 91 | 1017.1 |
| 20260902092919 | 73 | 204 | 0.0 | 0.0 | 0.00 | 0.00 | 0.00 | 91 | 1017.1 |
| 20260902092453 | 73 | 204 | 0.0 | 0.0 | 0.00 | 0.00 | 0.00 | 90 | 1017.2 |
| 20260902091926 | 73 | 204 | 0.0 | 0.0 | 0.00 | 0.00 | 0.00 | 90 | 1017.1 |
| 20260902091500 | 73 | 204 | 0.0 | 0.0 | 0.00 | 0.00 | 0.00 | 91 | 1017.1 |
| 20260902090933 | 73 | 204 | 0.0 | 0.0 | 0.00 | 0.00 | 0.00 | 90 | 1017.0 |
| 20260902085959 | 74 | 204 | 0.0 | 0.0 | 0.00 | 0.00 | 0.00 | 90 | 1016.9 |
| 20260902085432 | 74 | 204 | 0.0 | 0.0 | 0.00 | 0.00 | 0.00 | 90 | 1016.8 |
| 20260902085007 | 74 | 204 | 0.0 | 0.0 | 0.00 | 0.00 | 0.00 | 90 | 1016.8 |
| 20260902084423 | 74 | 204 | 0.0 | 0.0 | 0.00 | 0.00 | 0.00 | 91 | 1016.7 |
| 20260902083957 | 74 | 204 | 0.0 | 0.0 | 0.00 | 0.00 | 0.00 | 91 | 1016.7 |
| 20260902082945 | 74 | 204 | 0.0 | 0.0 | 0.00 | 0.00 | 0.00 | 91 | 1016.6 |
| 20260902081935 | 74 | 204 | 0.0 | 0.0 | 0.00 | 0.00 | 0.00 | 91 | 1016.6 |
| 20260902080931 | 74 | 204 | 0.0 | 0.0 | 0.00 | 0.00 | 0.00 | 91 | 1016.5 |
| 20260902075915 | 74 | 204 | 0.0 | 0.0 | 0.00 | 0.00 | 0.00 | 90 | 1016.3 |
| 20260902075449 | 74 | 204 | 0.0 | 0.0 | 0.00 | 0.00 | 0.00 | 90 | 1016.2 |
| 20260902074921 | 74 | 204 | 0.0 | 0.0 | 0.00 | 0.00 | 0.00 | 90 | 1016.2 |
| 20260902074455 | 74 | 204 | 0.0 | 0.0 | 0.00 | 0.00 | 0.00 | 90 | 1016.2 |
| 20260902072927 | 74 | 204 | 0.0 | 0.0 | 0.00 | 0.00 | 0.00 | 90 | 1016.3 |
| 20260902071940 | 74 | 204 | 0.0 | 0.0 | 0.00 | 0.00 | 0.00 | 90 | 1016.3 |
| 20260902071412 | 74 | 204 | 0.0 | 0.0 | 0.00 | 0.00 | 0.00 | 90 | 1016.3 |
| 20260902070946 | 74 | 204 | 0.0 | 0.0 | 0.00 | 0.00 | 0.00 | 90 | 1016.3 |
| 20260902070418 | 74 | 204 | 0.0 | 0.0 | 0.00 | 0.00 | 0.00 | 90 | 1016.4 |
| 20260902065929 | 74 | 204 | 0.0 | 0.0 | 0.00 | 0.00 | 0.00 | 90 | 1016.4 |
| 20260902064925 | 75 | 204 | 0.0 | 0.0 | 0.00 | 0.00 | 0.00 | 89 | 1016.4 |
| 20260902064459 | 75 | 204 | 0.0 | 0.0 | 0.00 | 0.00 | 0.00 | 89 | 1016.4 |
| 20260902063932 | 75 | 204 | 0.0 | 0.0 | 0.00 | 0.00 | 0.00 | 89 | 1016.4 |
| 20260902063506 | 75 | 204 | 0.0 | 0.0 | 0.00 | 0.00 | 0.00 | 89 | 1016.3 |
| 20260902062957 | 75 | 204 | 0.0 | 0.0 | 0.00 | 0.00 | 0.00 | 89 | 1016.5 |
| 20260902061430 | 75 | 204 | 0.0 | 0.0 | 0.00 | 0.00 | 0.00 | 89 | 1016.4 |
| 20260902061003 | 75 | 204 | 0.0 | 0.0 | 0.00 | 0.00 | 0.00 | 89 | 1016.4 |
| 20260902060436 | 75 | 204 | 0.0 | 0.0 | 0.00 | 0.00 | 0.00 | 89 | 1016.4 |
| 20260902055924 | 75 | 204 | 0.0 | 0.0 | 0.00 | 0.00 | 0.00 | 89 | 1016.4 |
| 20260902055411 | 75 | 204 | 0.0 | 0.0 | 0.00 | 0.00 | 0.00 | 88 | 1016.5 |
| 20260902054919 | 75 | 204 | 0.0 | 0.0 | 0.00 | 0.00 | 0.00 | 88 | 1016.5 |
| 20260902054407 | 76 | 204 | 0.0 | 0.0 | 0.00 | 0.00 | 0.00 | 88 | 1016.4 |
| 20260902053915 | 76 | 204 | 0.0 | 0.0 | 0.00 | 0.00 | 0.00 | 88 | 1016.5 |
| 20260902053422 | 76 | 204 | 0.0 | 0.0 | 0.00 | 0.00 | 0.00 | 88 | 1016.5 |
| 20260902051914 | 76 | 204 | 0.0 | 0.0 | 0.00 | 0.00 | 0.00 | 87 | 1016.5 |
| 20260902051422 | 76 | 204 | 0.0 | 0.0 | 0.00 | 0.00 | 0.00 | 87 | 1016.4 |
| 20260902050421 | 76 | 204 | 0.0 | 0.0 | 0.00 | 0.00 | 0.00 | 87 | 1016.5 |
| 20260902045924 | 76 | 204 | 0.0 | 0.0 | 0.00 | 0.00 | 0.00 | 87 | 1016.5 |
| 20260902045412 | 76 | 204 | 0.0 | 0.0 | 0.00 | 0.00 | 0.00 | 87 | 1016.5 |
| 20260902044920 | 76 | 204 | 0.0 | 0.0 | 0.00 | 0.00 | 0.00 | 86 | 1016.5 |
| 20260902043412 | 77 | 204 | 0.0 | 0.0 | 0.00 | 0.00 | 0.00 | 85 | 1016.4 |
| 20260902042921 | 77 | 204 | 0.0 | 0.0 | 0.00 | 0.00 | 0.00 | 85 | 1016.4 |
| 20260902041918 | 77 | 204 | 0.0 | 0.0 | 0.00 | 0.00 | 0.00 | 85 | 1016.5 |
| 20260902041407 | 77 | 204 | 0.0 | 0.0 | 0.00 | 0.00 | 0.00 | 84 | 1016.5 |
| 20260902035954 | 78 | 204 | 0.0 | 0.0 | 0.00 | 0.00 | 0.00 | 84 | 1016.5 |
| 20260902034943 | 78 | 204 | 0.0 | 0.0 | 0.00 | 0.00 | 0.00 | 84 | 1016.5 |
| 20260902033941 | 78 | 204 | 0.0 | 0.0 | 0.00 | 0.00 | 0.00 | 83 | 1016.5 |
| 20260902032930 | 78 | 204 | 0.0 | 0.0 | 0.00 | 0.00 | 0.00 | 83 | 1016.5 |
| 20260902032504 | 78 | 203 | 0.0 | 0.0 | 0.00 | 0.00 | 0.00 | 82 | 1016.4 |
| 20260902031937 | 78 | 203 | 0.0 | 0.0 | 0.00 | 0.00 | 0.00 | 82 | 1016.4 |
| 20260902031410 | 78 | 203 | 0.0 | 0.0 | 0.00 | 0.00 | 0.00 | 83 | 1016.4 |
| 20260902030944 | 78 | 203 | 0.0 | 0.0 | 0.00 | 0.00 | 0.00 | 82 | 1016.4 |
| 20260902030459 | 78 | 203 | 0.0 | 0.0 | 0.00 | 0.00 | 0.00 | 83 | 1016.4 |
| 20260902025954 | 78 | 203 | 0.0 | 0.0 | 0.00 | 0.00 | 0.00 | 83 | 1016.5 |
| 20260902025427 | 79 | 203 | 0.0 | 0.0 | 0.00 | 0.00 | 0.00 | 82 | 1016.5 |
| 20260902024439 | 79 | 203 | 0.0 | 0.0 | 0.00 | 0.00 | 0.00 | 82 | 1016.6 |
| 20260902023910 | 79 | 203 | 0.0 | 0.0 | 0.00 | 0.00 | 0.00 | 82 | 1016.5 |
| 20260902023443 | 79 | 203 | 0.0 | 0.0 | 0.00 | 0.00 | 0.00 | 81 | 1016.6 |
| 20260902022439 | 79 | 203 | 0.0 | 0.0 | 0.00 | 0.00 | 0.00 | 81 | 1016.5 |
| 20260902021425 | 80 | 203 | 0.0 | 0.0 | 0.00 | 0.00 | 0.00 | 80 | 1016.5 |
| 20260902020956 | 80 | 203 | 0.0 | 0.0 | 0.00 | 0.00 | 0.00 | 80 | 1016.5 |
| 20260902020427 | 80 | 203 | 0.0 | 0.0 | 0.00 | 0.00 | 0.00 | 80 | 1016.5 |
| 20260902015938 | 80 | 203 | 0.0 | 0.0 | 0.00 | 0.00 | 0.00 | 79 | 1016.4 |
| 20260902014927 | 81 | 203 | 0.0 | 0.0 | 0.00 | 0.00 | 0.00 | 79 | 1016.4 |
| 20260902014501 | 81 | 203 | 0.0 | 0.0 | 0.00 | 0.00 | 0.00 | 79 | 1016.4 |
| 20260902013455 | 81 | 203 | 0.0 | 0.0 | 0.00 | 0.00 | 0.00 | 78 | 1016.3 |
| 20260902012927 | 81 | 203 | 0.0 | 0.0 | 0.00 | 0.00 | 0.00 | 78 | 1016.3 |
| 20260902011940 | 81 | 203 | 0.0 | 0.0 | 0.00 | 0.00 | 0.00 | 78 | 1016.1 |
| 20260902010927 | 82 | 203 | 0.0 | 0.0 | 0.00 | 0.00 | 0.00 | 77 | 1016.1 |
| 20260902010501 | 82 | 203 | 0.0 | 0.0 | 0.00 | 0.00 | 0.00 | 77 | 1016.1 |
| 20260902005412 | 82 | 203 | 0.0 | 0.0 | 0.00 | 0.00 | 0.00 | 76 | 1015.9 |
| 20260902004945 | 83 | 203 | 0.0 | 0.0 | 0.00 | 0.00 | 0.00 | 76 | 1015.9 |
| 20260902004418 | 83 | 203 | 0.0 | 0.0 | 0.00 | 0.00 | 0.00 | 75 | 1016.0 |
| 20260902003952 | 83 | 203 | 0.0 | 0.0 | 0.00 | 0.00 | 0.00 | 74 | 1016.0 |
| 20260902003425 | 84 | 203 | 0.0 | 0.0 | 0.00 | 0.00 | 0.00 | 73 | 1016.0 |
| 20260902002958 | 84 | 203 | 0.0 | 0.0 | 0.00 | 0.00 | 0.00 | 72 | 1016.0 |
| 20260902002430 | 85 | 203 | 0.0 | 0.0 | 0.00 | 0.00 | 0.00 | 71 | 1016.0 |
| 20260902001427 | 86 | 203 | 0.0 | 0.0 | 0.00 | 0.00 | 0.00 | 68 | 1016.0 |
| 20260902001001 | 87 | 203 | 0.0 | 0.0 | 0.00 | 0.00 | 0.00 | 67 | 1016.0 |
| 20260902000433 | 87 | 203 | 0.0 | 0.0 | 0.00 | 0.00 | 0.00 | 66 | 1016.1 |
| 20260902000004 | 88 | 203 | 0.0 | 0.0 | 0.00 | 0.00 | 0.00 | 65 | 1016.0 |
| 20260901234407 | 89 | 203 | 0.0 | 0.9 | 0.00 | 0.00 | 0.00 | 61 | 1016.0 |